Regional Weather Roundup
Issued by NWS

Home | Current Version | Previous Version | Graphics & Text | Print | Product List | Glossary On
Versions: 1 2 3 4 5 6 7 8 9 10 11 12 13 14 15 16 17 18 19 20 21 22 23 24 25 26 27 28 29 30 31 32 33 34 35 36 37 38 39 40 41 42 43 44 45 46 47 48 49 50
000
ASUS43 KIND 240459
RWRIN

WEATHER ROUNDUP FOR INDIANA
NATIONAL WEATHER SERVICE INDIANAPOLIS IN
100 AM EDT SUN MAY 24 2015

NOTE: "FAIR" INDICATES FEW OR NO CLOUDS BELOW 12,000 FEET WITH NO
SIGNIFICANT WEATHER AND/OR OBSTRUCTIONS TO VISIBILITY.

* - STATION DOES NOT REPORT WEATHER SUCH AS PRECIPITATION OR FOG.

+ - STATION NOT QUALITY CONTROLLED BY THE NATIONAL WEATHER SERVICE.
    USE DATA WITH CAUTION...ESPECIALLY DEWPOINT AND RELATIVE
    HUMIDITY OBSERVATIONS.

INZ001>003-010>013-019-020-240600-
NORTHWEST INDIANA

CITY           SKY/WX    TMP DP  RH WIND       PRES   REMARKS
LA PORTE +     PTCLDY    62  49  63 CALM      30.24S
RENSSELAER +   MOCLDY    63  45  51 SE3       30.23S

$$

LMZ046-743>745-240600-
SOUTHERN LAKE MICHIGAN

STATION/POSITION TIME  TEMP    WIND        PRES    WAVE
                       AIR SEA DIR/SP/G            HT
                 (UTC) (F)     (DEG/KT/KT) (MB)    (FT)
BURNS HARBOR     0400   68     190/  7/ 10 1023.4S
MICHIGAN CITY    0400   71     150/ 10/ 14   N/A
5NW MICH CITY    0400   60 53  180/  4/  4   N/A     0

$$

INZ004-005-014>016-021>024-240600-
NORTH CENTRAL INDIANA

CITY           SKY/WX    TMP DP  RH WIND       PRES   REMARKS
GOSHEN         CLEAR     58  48  69 CALM      30.24S
SOUTH BEND     CLEAR     60  47  61 CALM      30.24S
WARSAW +       PTCLDY    57  48  72 CALM      30.25S

$$

INZ006>009-017-018-025>027-240600-
NORTHEAST INDIANA

CITY           SKY/WX    TMP DP  RH WIND       PRES   REMARKS
ANGOLA *+      CLEAR     55  54  94 CALM      30.26S
FORT WAYNE     PTCLDY    61  48  62 S6        30.26F

$$

INZ028-029-035-036-043>045-051>053-240600-
WEST CENTRAL INDIANA

CITY           SKY/WX    TMP DP  RH WIND       PRES   REMARKS
CRAWFORDSVL +  PTCLDY    59  42  53 SE5       30.23F
GREENCASTLE +  PTCLDY    59  43  55 CALM      30.24F
LAFAYETTE      PTCLDY    57  48  72 CALM      30.22F
TERRE HAUTE    PTCLDY    62  51  67 CALM      30.22F

$$

INZ030>032-037>040-046>048-054>057-064-065-240600-
CENTRAL INDIANA

CITY           SKY/WX    TMP DP  RH WIND       PRES   REMARKS
CP ATTERBURY + MOCLDY    54  50  87 CALM      30.26S
FRANKFORT +    PTCLDY    61  46  57 E6        30.26S
GREENWOOD *+   PTCLDY    64  43  45 SE5       30.26S
INDIANAPOLIS   MOCLDY    63  47  55 SE7       30.23F
-EAGLE CREEK   PTCLDY    60  48  64 CALM      30.24F
KOKOMO *+      PTCLDY    57  46  67 SE5       30.25F
MT COMFORT *+  PTCLDY    63  36  36 SE3       30.26F
SHELBYVILLE    PTCLDY    65  46  50 SE7       30.25F
ZIONSVILLE +   PTCLDY    58  44  58 CALM      30.26S

$$

INZ033-034-041-042-049-050-058-059-240600-
EAST CENTRAL INDIANA

CITY           SKY/WX    TMP DP  RH WIND       PRES   REMARKS
MUNCIE         PTCLDY    64  45  49 S5        30.27S

$$

INZ060-061-067>069-081>083-085>088-240600-
SOUTHWEST INDIANA

CITY           SKY/WX    TMP DP  RH WIND       PRES   REMARKS
EVANSVILLE     PTCLDY    65  53  65 NE3       30.20F
HUNTINGBURG *+ CLOUDY    63  48  59 SE5       30.22F

$$

INZ062-063-066-070>080-084-089>092-240600-
SOUTH CENTRAL AND SOUTHEAST INDIANA

CITY           SKY/WX    TMP DP  RH WIND       PRES   REMARKS
BLOOMINGTON    PTCLDY    57  51  80 CALM      30.24F
MADISON *+     PTCLDY    63  45  51 E3        30.28S
SEYMOUR +      MOCLDY    61  48  63 CALM      30.25S

$$



USA.gov is the U.S. government's official web portal to all federal, state and local government web resources and services.